Dewpoint
56 57 57 57 56 53 52 50 48 47 43 40 39 41 41 42 39 37 35 31 36 34 34 31 29 27 25 25 25 25 24 24 21 20 18 17 20 20 18 17 16 13 11
55 56 57 57 55 54 53 52 49 47 41 39 41 39 35 36 34 33 30 31 33 35 31 30 27 25 27 28 27 26 25 24 22 20 20 18 18 18 17 17 13 10 12
55 54 55 55 54 53 51 49 46 42 41 41 38 33 33 32 30 32 33 36 39 35 30 28 28 28 28 28 28 26 24 23 23 21 20 19 18 15 15 14 12 12 11
52 52 52 52 52 51 50 48 46 43 41 37 35 33 33 30 29 34 39 40 39 34 31 31 30 29 28 29 28 27 26 25 24 21 19 17 15 13 13 11 7 10 10
49 49 49 50 49 48 47 46 44 42 38 35 34 34 33 33 38 41 40 39 36 32 32 31 31 31 31 30 28 27 27 25 24 20 18 16 12 10 10 10 9 11 12
47 46 46 46 44 43 41 39 37 35 34 34 33 36 38 40 40 40 39 38 35 32 31 30 29 31 32 33 32 30 27 26 24 21 19 15 12 12 12 10 11 12 10
44 43 43 42 41 40 38 35 34 33 35 34 37 37 38 38 40 38 36 34 36 35 32 30 28 26 28 30 32 31 27 22 22 22 20 16 14 14 14 10 11 12 12
40 40 40 40 38 36 35 35 36 37 38 38 39 37 36 37 39 35 37 37 37 31 29 27 26 26 26 27 29 28 26 26 24 20 20 17 15 16 14 12 15 16 15
37 37 37 37 37 37 36 37 38 37 37 37 37 37 37 39 36 37 38 33 29 28 27 27 26 26 27 29 27 27 27 26 24 25 24 22 21 20 18 15 17 15 16
37 37 37 37 37 37 38 38 38 38 38 38 38 37 37 37 37 36 32 31 29 28 28 27 27 28 28 29 27 27 27 26 23 19 19 21 22 21 23 20 17 16 15
37 37 37 37 38 38 38 38 37 36 36 35 34 32 31 31 30 31 31 30 30 30 29 28 28 29 28 29 27 28 29 28 24 19 18 17 17 15 15 19 18 16 16
36 36 35 35 33 32 31 29 27 27 28 28 30 29 30 30 30 31 31 31 30 30 30 31 31 31 30 28 29 27 28 28 27 24 22 19 18 15 15 15 16 16 16
28 27 27 27 27 27 28 27 26 26 27 27 25 25 24 25 24 27 24 24 24 25 27 30 31 31 31 30 29 28 28 28 30 27 26 23 22 20 19 18 17 17 17
26 26 25 24 23 22 20 17 17 19 19 17 18 18 18 19 19 21 19 19 19 21 22 24 25 25 31 32 32 30 29 29 29 28 26 26 26 26 21 19 18 18 18
23 21 20 19 14 13 12 15 15 18 19 17 18 17 19 19 19 18 18 19 19 20 21 24 23 22 21 27 30 32 33 31 30 30 29 29 29 28 26 22 20 18 17
17 15 17 16 15 11 10 11 19 19 18 18 18 18 17 17 16 16 16 17 17 17 17 20 24 25 25 22 23 29 32 32 31 31 31 29 29 27 26 23 20 18 17
13 14 15 14 12 12 12 12 11 15 15 15 15 14 14 13 14 14 15 14 15 15 15 16 17 20 21 21 25 27 29 30 31 31 30 29 28 27 27 26 22 19 18
14 16 13 12 12 13 12 13 13 13 13 13 12 11 11 11 11 12 12 13 12 12 13 13 14 16 16 18 20 22 30 28 31 30 30 29 29 27 26 25 22 19 18
9 10 14 15 14 12 12 11 11 11 11 10 10 9 9 8 10 11 11 12 11 11 11 11 12 13 14 16 19 20 24 31 31 30 29 28 28 27 26 25 21 19 18
11 12 12 11 11 10 9 10 9 10 9 9 9 9 8 7 10 10 10 10 10 9 9 10 10 12 13 15 17 20 20 30 29 29 28 28 28 27 26 26 23 20 19
9 10 11 9 9 8 9 9 8 8 8 7 8 9 5 6 8 8 8 8 8 8 8 9 10 11 13 14 14 15 18 23 30 29 28 27 28 26 27 25 22 20 19
7 7 7 7 7 9 6 6 7 7 7 6 7 6 4 7 7 6 6 7 8 7 7 8 9 10 11 13 13 13 16 18 29 30 29 26 26 27 27 26 24 22 20
8 9 7 5 7 5 7 6 6 7 6 5 6 5 5 5 5 5 5 6 6 6 7 7 8 8 10 11 13 13 15 16 19 24 28 28 26 26 27 26 24 23 22
7 8 5 5 6 5 6 6 6 4 3 4 5 5 5 4 5 4 5 5 5 5 5 6 6 8 9 10 11 13 14 16 17 20 30 29 27 25 27 26 24 23 23
7 7 6 6 6 5 5 4 4 4 4 4 4 4 3 4 3 3 4 3 3 3 3 4 6 7 7 8 10 12 13 13 16 19 26 29 27 26 26 26 24 23 23
6 5 5 5 5 4 3 3 3 3 2 2 2 3 3 3 2 2 2 2 1 1 3 4 5 6 7 9 12 12 12 14 15 17 20 27 27 26 26 26 25 24 23
Wind_Speed
21 19 20 19 14 14 17 17 18 19 20 19 20 19 18 13 16 13 11 10 10 10 11 13 13 11 10 11 11 12 13 14 17 16 15 14 11 15 17 16 17 19 19
14 13 14 13 15 17 17 15 15 16 14 18 19 19 17 16 13 12 12 6 4 13 17 16 15 13 14 14 13 15 15 15 16 20 17 17 16 13 16 17 17 17 18
6 8 11 11 11 12 12 11 12 16 17 17 18 19 16 16 15 13 8 3 8 18 17 18 17 18 19 18 17 16 16 15 15 17 19 16 15 14 15 16 17 17 17
6 7 8 9 9 10 10 12 14 15 17 18 18 17 16 16 13 9 4 7 14 16 16 19 19 21 22 21 20 19 17 16 16 17 18 17 15 13 13 16 17 15 17
5 5 4 4 4 5 7 8 8 10 11 13 14 12 14 12 9 5 3 10 14 17 19 21 23 24 24 24 22 20 18 17 16 17 18 17 16 15 15 14 16 16 17
6 6 5 4 4 4 5 7 10 12 13 14 13 14 11 7 8 2 9 12 17 19 21 21 22 23 24 26 28 25 18 18 18 18 18 17 17 15 14 14 14 16 18
9 8 7 6 7 7 8 9 10 11 13 13 12 11 10 7 5 9 11 11 16 20 21 22 22 21 20 22 23 23 21 19 19 18 19 18 17 15 14 15 15 15 17
13 12 10 10 10 10 11 11 13 14 14 15 12 10 8 12 11 11 14 12 18 21 23 24 24 25 24 20 23 21 22 19 19 17 20 19 16 14 13 14 14 17 17
16 15 14 13 13 12 12 11 10 10 8 7 5 8 12 15 10 16 15 15 19 22 21 21 22 23 22 19 23 23 22 19 13 16 15 11 7 7 13 14 15 15 17
16 16 15 14 13 12 9 7 4 2 1 1 2 5 9 11 15 14 14 16 20 19 21 22 21 22 23 18 23 24 23 21 19 17 15 18 18 18 18 18 16 17 17
16 15 13 12 11 9 8 7 5 3 1 2 5 7 10 11 13 12 13 15 17 20 21 22 19 17 22 21 25 24 24 20 18 18 18 16 16 16 16 19 18 17 17
13 12 12 10 8 6 4 4 3 3 4 5 6 8 8 10 8 10 12 13 16 19 22 22 22 21 20 24 25 27 24 19 16 17 17 18 17 17 16 16 16 16 15
12 11 10 9 8 7 6 5 4 5 6 7 8 10 11 12 13 12 19 24 23 21 20 23 29 29 28 24 28 31 27 22 20 20 20 21 19 17 16 15 13 13 15
12 10 9 8 6 6 5 5 5 6 7 7 8 10 11 12 13 16 19 21 21 22 22 23 24 26 25 25 22 24 26 25 23 23 22 20 15 15 16 14 15 14 14
10 8 7 6 6 5 6 6 6 8 8 8 8 10 11 12 13 19 21 20 21 23 27 23 22 22 22 23 21 21 19 23 24 24 22 19 19 17 16 16 15 14 14
9 7 6 5 5 5 5 2 10 6 6 7 8 9 11 11 18 22 22 23 26 24 22 20 20 20 21 23 23 22 19 20 22 22 21 20 19 19 18 16 15 15 14
9 7 6 5 5 4 4 4 5 2 3 1 4 9 9 15 21 23 23 25 21 19 17 18 20 21 22 23 23 24 22 17 18 17 18 19 19 19 18 16 16 15 14
9 7 5 4 4 3 4 4 4 6 8 8 6 8 9 15 21 20 21 21 17 16 17 19 20 20 22 24 23 25 19 15 15 18 18 16 17 18 18 18 17 16 15
6 6 4 4 4 3 3 4 5 6 7 9 10 8 11 17 18 15 17 15 17 18 18 19 20 21 22 22 23 23 27 18 14 15 16 15 17 19 18 18 16 16 14
8 6 4 3 3 3 4 5 6 7 8 9 10 11 13 16 14 14 14 14 16 17 19 20 21 21 22 23 23 24 25 20 16 16 14 14 15 17 18 18 16 16 15
4 4 3 3 3 4 5 6 6 7 8 9 10 9 11 14 14 14 15 15 16 17 19 20 21 21 20 22 23 25 23 28 15 15 13 13 15 17 17 17 16 17 15
4 3 3 3 3 4 5 6 6 7 9 10 11 11 12 12 13 14 15 15 16 17 17 19 20 20 20 21 22 24 23 26 11 11 13 13 14 16 16 17 16 15 15
4 3 2 3 4 4 4 6 7 8 9 10 11 12 12 12 13 14 16 16 16 17 18 19 20 20 20 20 21 20 21 21 22 21 12 12 13 15 16 18 18 16 16
3 2 2 2 3 5 5 6 7 7 9 10 11 12 12 13 14 15 15 16 17 18 18 19 19 21 21 22 21 20 20 20 22 24 14 12 14 16 16 17 18 18 16
2 2 3 3 4 5 6 7 8 9 10 11 12 12 13 13 14 14 15 16 16 18 20 19 19 21 23 27 25 24 24 26 24 24 16 11 12 15 17 18 18 17 16
3 3 4 4 4 5 6 8 8 9 10 11 12 13 13 13 14 15 15 16 17 20 20 19 21 24 26 23 21 25 26 24 22 25 20 10 11 12 15 17 20 16 17
Wind_Direction
215 216 218 220 200 202 201 209 215 215 204 190 172 164 189 206 201 199 212 214 223 254 250 246 243 246 245 243 244 252 259 265 274 283 290 295 268 276 289 294 296 295 293
216 216 219 201 210 212 219 222 215 214 189 176 176 189 193 206 192 203 200 224 254 263 252 242 245 243 241 248 248 251 260 264 275 282 288 292 289 292 294 293 291 294 294
198 208 214 214 216 218 214 209 198 190 185 187 186 190 182 184 189 184 168 194 255 254 255 247 245 246 247 249 248 255 257 262 268 274 281 286 289 289 283 287 292 293 291
193 200 207 214 217 221 212 209 209 204 197 187 183 185 184 185 183 160 138 258 262 259 263 258 255 253 254 251 252 253 258 266 271 268 273 281 286 286 283 283 291 301 302
155 162 157 183 203 215 217 216 208 203 184 179 161 152 172 161 155 98 252 270 266 267 263 259 257 256 256 255 255 252 251 256 264 268 272 279 282 280 285 299 292 300 302
99 90 97 125 146 152 150 153 159 161 159 144 143 135 143 172 107 270 273 273 278 275 273 274 272 262 252 249 243 245 250 249 251 263 273 276 278 277 282 284 290 298 301
93 94 99 106 110 123 136 143 139 133 124 125 134 151 169 184 223 264 281 281 280 278 280 281 279 272 260 255 234 234 233 237 242 257 265 268 273 274 281 279 280 291 298
84 85 89 95 102 108 113 118 123 130 138 152 161 176 209 244 247 261 274 283 277 280 281 281 278 276 272 253 250 226 228 226 231 233 246 262 261 265 269 273 283 284 286
80 81 82 88 92 98 103 113 122 138 150 165 197 239 242 250 259 278 280 283 286 284 285 284 279 277 272 249 238 239 234 234 218 217 246 262 263 255 261 277 272 278 288
85 86 88 91 93 96 101 101 111 115 125 49 306 301 281 270 264 261 278 291 286 286 287 285 277 263 271 241 227 233 235 235 231 224 234 242 244 245 231 241 259 268 283
93 88 82 77 72 70 73 68 75 90 185 254 288 295 294 294 297 314 315 307 299 297 292 289 285 274 247 241 219 228 231 236 240 239 234 236 234 234 233 223 238 253 272
98 95 92 91 92 96 92 72 44 14 341 320 316 308 307 310 326 333 331 316 313 303 296 293 285 282 259 239 230 233 229 220 239 238 233 237 237 236 237 238 241 250 262
100 95 90 83 72 57 49 31 12 360 347 339 328 324 321 330 322 3 344 332 322 312 303 304 295 287 282 267 241 240 224 224 220 224 227 235 234 234 235 237 245 259 265
102 92 86 72 68 52 47 27 15 7 353 341 337 333 330 328 328 346 331 323 318 313 311 305 297 290 285 268 271 244 232 222 216 220 223 228 232 230 228 226 237 241 254
103 94 86 73 60 59 54 32 25 50 20 353 356 339 340 328 344 333 327 323 324 316 307 294 290 289 284 276 261 248 250 228 219 220 219 218 217 210 219 222 228 236 249
111 96 73 73 58 42 28 71 110 76 25 19 8 356 333 342 336 330 327 327 323 323 317 309 309 307 298 289 279 266 243 234 229 223 214 210 212 209 209 218 220 225 240
97 93 96 72 61 45 22 4 340 104 146 136 7 347 353 338 337 333 333 331 320 329 329 327 323 321 316 311 316 285 252 237 228 225 215 210 211 210 202 206 214 220 235
97 74 80 68 56 39 22 1 344 340 330 331 348 343 352 342 334 331 336 326 337 337 332 327 325 324 321 318 313 314 275 253 235 224 219 208 207 209 202 203 212 216 226
86 74 69 67 56 29 8 354 345 335 331 326 328 330 349 345 324 330 337 338 333 329 330 325 323 322 321 318 317 313 309 272 246 223 215 212 203 208 205 201 209 212 216
91 69 51 56 41 14 3 351 344 336 329 329 328 337 341 337 336 339 337 335 330 326 326 322 323 320 319 321 317 316 321 270 237 228 209 210 208 202 202 197 199 204 210
95 93 54 43 27 8 353 345 338 332 327 324 325 342 344 324 327 334 331 331 329 326 323 320 320 319 319 321 325 322 316 315 216 209 206 211 206 203 202 195 197 203 204
83 72 55 37 4 1 352 340 333 327 323 323 324 329 333 318 330 329 326 329 326 321 322 319 318 317 319 321 324 322 325 327 284 216 208 210 211 203 196 191 195 196 204
75 59 44 31 360 347 338 336 327 324 323 321 323 324 327 329 327 325 324 323 323 322 321 320 318 316 317 320 319 322 319 328 324 315 222 210 209 204 194 190 189 191 195
61 50 28 8 5 338 333 325 321 314 315 317 319 318 319 322 320 320 319 321 321 319 319 320 315 313 317 318 318 317 319 322 321 326 263 224 210 205 200 187 188 191 192
27 10 356 343 330 325 318 319 317 317 318 316 315 313 315 316 317 318 319 319 318 319 320 316 315 317 318 318 315 318 323 321 328 329 323 220 217 205 199 187 184 188 192
337 336 325 315 310 313 315 314 314 315 313 313 310 309 311 313 314 317 318 316 322 320 315 319 317 319 319 318 319 324 320 322 330 331 337 318 226 206 200 190 181 185 188